Time,TemperatureF,DewpointF,PressureIn,WindDirection,WindDirectionDegrees,WindSpeedMPH,WindSpeedGustMPH,Humidity,HourlyPrecipIn,Conditions,Clouds,dailyrainin,SoftwareType,DateUTC
2013-04-21 00:00:00,57.0,48.0,30.25,NNE,20,13.0,15.0,72,-99.99,,,-99.99,,2013-04-21 04:00:00,
2013-04-21 00:22:00,57.0,48.0,30.25,NNE,20,13.0,15.0,72,-99.99,,,-99.99,,2013-04-21 04:22:00,
2013-04-21 00:32:00,57.0,48.0,30.25,NNE,20,13.0,15.0,72,-99.99,,,-99.99,,2013-04-21 04:32:00,
2013-04-21 00:42:00,57.0,48.0,30.25,NNE,20,13.0,15.0,72,-99.99,,,-99.99,,2013-04-21 04:42:00,
2013-04-21 00:52:00,57.0,48.0,30.25,NNE,20,13.0,15.0,72,-99.99,,,-99.99,,2013-04-21 04:52:00,
2013-04-21 01:00:00,58.0,46.0,30.25,NE,40,14.0,16.0,65,-99.99,,,-99.99,,2013-04-21 05:00:00,
2013-04-21 01:21:00,58.0,46.0,30.25,NE,40,14.0,16.0,65,-99.99,,,-99.99,,2013-04-21 05:21:00,
2013-04-21 01:32:00,58.0,46.0,30.25,NE,40,14.0,16.0,65,-99.99,,,-99.99,,2013-04-21 05:32:00,
2013-04-21 01:42:00,58.0,46.0,30.25,NE,40,14.0,16.0,65,-99.99,,,-99.99,,2013-04-21 05:42:00,
2013-04-21 01:52:00,58.0,46.0,30.25,NE,40,14.0,16.0,65,-99.99,,,-99.99,,2013-04-21 05:52:00,
2013-04-21 02:00:00,57.0,48.0,30.26,ENE,60,20.0,21.0,71,-99.99,,,-99.99,,2013-04-21 06:00:00,
2013-04-21 02:21:00,57.0,48.0,30.26,ENE,60,20.0,21.0,71,-99.99,,,-99.99,,2013-04-21 06:21:00,
2013-04-21 02:32:00,57.0,48.0,30.26,ENE,60,20.0,21.0,71,-99.99,,,-99.99,,2013-04-21 06:32:00,
2013-04-21 02:42:00,57.0,48.0,30.26,ENE,60,20.0,21.0,71,-99.99,,,-99.99,,2013-04-21 06:42:00,
2013-04-21 02:51:00,57.0,48.0,30.26,ENE,60,20.0,21.0,71,-99.99,,,-99.99,,2013-04-21 06:51:00,
2013-04-21 03:00:00,57.0,45.0,30.27,NE,50,18.0,22.0,64,-99.99,,,-99.99,,2013-04-21 07:00:00,
2013-04-21 03:21:00,57.0,45.0,30.27,NE,50,18.0,22.0,64,-99.99,,,-99.99,,2013-04-21 07:21:00,
2013-04-21 03:31:00,57.0,45.0,30.27,NE,50,18.0,22.0,64,-99.99,,,-99.99,,2013-04-21 07:31:00,
2013-04-21 03:41:00,57.0,45.0,30.27,NE,50,18.0,22.0,64,-99.99,,,-99.99,,2013-04-21 07:41:00,
2013-04-21 03:51:00,57.0,45.0,30.27,NE,50,18.0,22.0,64,-99.99,,,-99.99,,2013-04-21 07:51:00,
2013-04-21 04:00:00,57.0,42.0,30.27,NE,40,22.0,24.0,56,-99.99,,,-99.99,,2013-04-21 08:00:00,
2013-04-21 04:21:00,57.0,42.0,30.27,NE,40,22.0,24.0,56,-99.99,,,-99.99,,2013-04-21 08:21:00,
2013-04-21 04:31:00,57.0,42.0,30.27,NE,40,22.0,24.0,56,-99.99,,,-99.99,,2013-04-21 08:31:00,
2013-04-21 04:41:00,57.0,42.0,30.27,NE,40,22.0,24.0,56,-99.99,,,-99.99,,2013-04-21 08:41:00,
2013-04-21 04:52:00,57.0,42.0,30.27,NE,40,22.0,24.0,56,-99.99,,,-99.99,,2013-04-21 08:52:00,
2013-04-21 05:00:00,57.0,41.0,30.28,NE,40,25.0,28.0,55,-99.99,,,-99.99,,2013-04-21 09:00:00,
2013-04-21 05:21:00,57.0,41.0,30.28,NE,40,25.0,28.0,55,-99.99,,,-99.99,,2013-04-21 09:21:00,
2013-04-21 05:32:00,57.0,41.0,30.28,NE,40,25.0,28.0,55,-99.99,,,-99.99,,2013-04-21 09:32:00,
2013-04-21 05:42:00,57.0,41.0,30.28,NE,40,25.0,28.0,55,-99.99,,,-99.99,,2013-04-21 09:42:00,
2013-04-21 05:52:00,57.0,41.0,30.28,NE,40,25.0,28.0,55,-99.99,,,-99.99,,2013-04-21 09:52:00,
2013-04-21 06:00:00,57.0,42.0,30.30,NE,40,24.0,30.0,57,-99.99,,,-99.99,,2013-04-21 10:00:00,
2013-04-21 06:22:00,57.0,42.0,30.30,NE,40,24.0,30.0,57,-99.99,,,-99.99,,2013-04-21 10:22:00,
2013-04-21 06:32:00,57.0,42.0,30.30,NE,40,24.0,30.0,57,-99.99,,,-99.99,,2013-04-21 10:32:00,
2013-04-21 06:42:00,57.0,42.0,30.30,NE,40,24.0,30.0,57,-99.99,,,-99.99,,2013-04-21 10:42:00,
2013-04-21 06:52:00,57.0,42.0,30.30,NE,40,24.0,30.0,57,-99.99,,,-99.99,,2013-04-21 10:52:00,
2013-04-21 07:00:00,58.0,42.0,30.33,NE,40,25.0,29.0,56,-99.99,,,-99.99,,2013-04-21 11:00:00,
2013-04-21 07:21:00,58.0,42.0,30.33,NE,40,25.0,29.0,56,-99.99,,,-99.99,,2013-04-21 11:21:00,
2013-04-21 07:33:00,58.0,42.0,30.33,NE,40,25.0,29.0,56,-99.99,,,-99.99,,2013-04-21 11:33:00,
2013-04-21 07:42:00,58.0,42.0,30.33,NE,40,25.0,29.0,56,-99.99,,,-99.99,,2013-04-21 11:42:00,
2013-04-21 07:51:00,58.0,42.0,30.33,NE,40,25.0,29.0,56,-99.99,,,-99.99,,2013-04-21 11:51:00,
2013-04-21 08:00:00,58.0,44.0,30.36,NE,40,28.0,32.0,61,-99.99,,,-99.99,,2013-04-21 12:00:00,
2013-04-21 08:22:00,58.0,44.0,30.36,NE,40,28.0,32.0,61,-99.99,,,-99.99,,2013-04-21 12:22:00,
2013-04-21 08:31:00,58.0,44.0,30.36,NE,40,28.0,32.0,61,-99.99,,,-99.99,,2013-04-21 12:31:00,
2013-04-21 08:42:00,58.0,44.0,30.36,NE,40,28.0,32.0,61,-99.99,,,-99.99,,2013-04-21 12:42:00,
2013-04-21 08:51:00,58.0,44.0,30.36,NE,40,28.0,32.0,61,-99.99,,,-99.99,,2013-04-21 12:51:00,
2013-04-21 09:00:00,57.0,44.0,30.38,NE,40,32.0,36.0,62,-99.99,,,-99.99,,2013-04-21 13:00:00,
2013-04-21 09:21:00,57.0,44.0,30.38,NE,40,32.0,36.0,62,-99.99,,,-99.99,,2013-04-21 13:21:00,
2013-04-21 09:32:00,57.0,44.0,30.38,NE,40,32.0,36.0,62,-99.99,,,-99.99,,2013-04-21 13:32:00,
2013-04-21 09:42:00,57.0,44.0,30.38,NE,40,32.0,36.0,62,-99.99,,,-99.99,,2013-04-21 13:42:00,
2013-04-21 09:52:00,57.0,44.0,30.38,NE,40,32.0,36.0,62,-99.99,,,-99.99,,2013-04-21 13:52:00,
2013-04-21 10:00:00,57.0,46.0,30.40,NE,40,30.0,38.0,65,-99.99,,,-99.99,,2013-04-21 14:00:00,
2013-04-21 10:21:00,57.0,46.0,30.40,NE,40,30.0,38.0,65,-99.99,,,-99.99,,2013-04-21 14:21:00,
2013-04-21 10:31:00,57.0,46.0,30.40,NE,40,30.0,38.0,65,-99.99,,,-99.99,,2013-04-21 14:31:00,
2013-04-21 10:42:00,57.0,46.0,30.40,NE,40,30.0,38.0,65,-99.99,,,-99.99,,2013-04-21 14:42:00,
2013-04-21 10:52:00,57.0,46.0,30.40,NE,40,30.0,38.0,65,-99.99,,,-99.99,,2013-04-21 14:52:00,
2013-04-21 11:00:00,57.0,46.0,30.42,NE,40,33.0,38.0,66,-99.99,,,-99.99,,2013-04-21 15:00:00,
2013-04-21 11:22:00,57.0,46.0,30.42,NE,40,33.0,38.0,66,-99.99,,,-99.99,,2013-04-21 15:22:00,
2013-04-21 11:33:00,57.0,46.0,30.42,NE,40,33.0,38.0,66,-99.99,,,-99.99,,2013-04-21 15:33:00,
2013-04-21 11:42:00,57.0,46.0,30.42,NE,40,33.0,38.0,66,-99.99,,,-99.99,,2013-04-21 15:42:00,
2013-04-21 11:53:00,57.0,46.0,30.42,NE,40,33.0,38.0,66,-99.99,,,-99.99,,2013-04-21 15:53:00,
2013-04-21 12:00:00,56.0,44.0,30.43,NE,40,33.0,38.0,62,-99.99,,,-99.99,,2013-04-21 16:00:00,
2013-04-21 12:22:00,56.0,44.0,30.43,NE,40,33.0,38.0,62,-99.99,,,-99.99,,2013-04-21 16:22:00,
2013-04-21 12:32:00,56.0,44.0,30.43,NE,40,33.0,38.0,62,-99.99,,,-99.99,,2013-04-21 16:32:00,
2013-04-21 12:42:00,56.0,44.0,30.43,NE,40,33.0,38.0,62,-99.99,,,-99.99,,2013-04-21 16:42:00,
2013-04-21 12:52:00,56.0,44.0,30.43,NE,40,33.0,38.0,62,-99.99,,,-99.99,,2013-04-21 16:52:00,
2013-04-21 13:00:00,56.0,44.0,30.43,NE,40,32.0,38.0,62,-99.99,,,-99.99,,2013-04-21 17:00:00,
2013-04-21 13:22:00,56.0,44.0,30.43,NE,40,32.0,38.0,62,-99.99,,,-99.99,,2013-04-21 17:22:00,
2013-04-21 13:32:00,56.0,44.0,30.43,NE,40,32.0,38.0,62,-99.99,,,-99.99,,2013-04-21 17:32:00,
2013-04-21 13:41:00,56.0,44.0,30.43,NE,40,32.0,38.0,62,-99.99,,,-99.99,,2013-04-21 17:41:00,
2013-04-21 13:52:00,56.0,44.0,30.43,NE,40,32.0,38.0,62,-99.99,,,-99.99,,2013-04-21 17:52:00,
2013-04-21 14:00:00,56.0,41.0,30.44,NE,40,31.0,36.0,57,-99.99,,,-99.99,,2013-04-21 18:00:00,
2013-04-21 14:21:00,56.0,41.0,30.44,NE,40,31.0,36.0,57,-99.99,,,-99.99,,2013-04-21 18:21:00,
2013-04-21 14:32:00,56.0,41.0,30.44,NE,40,31.0,36.0,57,-99.99,,,-99.99,,2013-04-21 18:32:00,
2013-04-21 14:42:00,56.0,41.0,30.44,NE,40,31.0,36.0,57,-99.99,,,-99.99,,2013-04-21 18:42:00,
2013-04-21 14:52:00,56.0,41.0,30.44,NE,40,31.0,36.0,57,-99.99,,,-99.99,,2013-04-21 18:52:00,
2013-04-21 15:00:00,56.0,45.0,30.43,NE,40,31.0,38.0,67,-99.99,,,-99.99,,2013-04-21 19:00:00,
2013-04-21 15:21:00,56.0,45.0,30.43,NE,40,31.0,38.0,67,-99.99,,,-99.99,,2013-04-21 19:21:00,
2013-04-21 15:31:00,56.0,45.0,30.43,NE,40,31.0,38.0,67,-99.99,,,-99.99,,2013-04-21 19:31:00,
2013-04-21 15:42:00,56.0,45.0,30.43,NE,40,31.0,38.0,67,-99.99,,,-99.99,,2013-04-21 19:42:00,
2013-04-21 15:52:00,56.0,45.0,30.43,NE,40,31.0,38.0,67,-99.99,,,-99.99,,2013-04-21 19:52:00,
2013-04-21 16:00:00,56.0,43.0,30.41,NE,40,37.0,41.0,63,-99.99,,,-99.99,,2013-04-21 20:00:00,
2013-04-21 16:21:00,56.0,43.0,30.41,NE,40,37.0,41.0,63,-99.99,,,-99.99,,2013-04-21 20:21:00,
2013-04-21 16:31:00,56.0,43.0,30.41,NE,40,37.0,41.0,63,-99.99,,,-99.99,,2013-04-21 20:31:00,
2013-04-21 16:41:00,56.0,43.0,30.41,NE,40,37.0,41.0,63,-99.99,,,-99.99,,2013-04-21 20:41:00,
2013-04-21 16:51:00,56.0,43.0,30.41,NE,40,37.0,41.0,63,-99.99,,,-99.99,,2013-04-21 20:51:00,
2013-04-21 17:00:00,55.0,43.0,30.41,NE,40,30.0,36.0,64,-99.99,,,-99.99,,2013-04-21 21:00:00,
2013-04-21 17:21:00,55.0,43.0,30.41,NE,40,30.0,36.0,64,-99.99,,,-99.99,,2013-04-21 21:21:00,
2013-04-21 17:32:00,55.0,43.0,30.41,NE,40,30.0,36.0,64,-99.99,,,-99.99,,2013-04-21 21:32:00,
2013-04-21 17:43:00,55.0,43.0,30.41,NE,40,30.0,36.0,64,-99.99,,,-99.99,,2013-04-21 21:43:00,
2013-04-21 17:53:00,55.0,43.0,30.41,NE,40,30.0,36.0,64,-99.99,,,-99.99,,2013-04-21 21:53:00,
2013-04-21 18:00:00,54.0,41.0,30.40,NE,50,36.0,38.0,60,-99.99,,,-99.99,,2013-04-21 22:00:00,
2013-04-21 18:22:00,54.0,41.0,30.40,NE,50,36.0,38.0,60,-99.99,,,-99.99,,2013-04-21 22:22:00,
2013-04-21 18:32:00,54.0,41.0,30.40,NE,50,36.0,38.0,60,-99.99,,,-99.99,,2013-04-21 22:32:00,
2013-04-21 18:42:00,54.0,41.0,30.40,NE,50,36.0,38.0,60,-99.99,,,-99.99,,2013-04-21 22:42:00,
2013-04-21 18:52:00,54.0,41.0,30.40,NE,50,36.0,38.0,60,-99.99,,,-99.99,,2013-04-21 22:52:00,
2013-04-21 19:00:00,54.0,41.0,30.40,NNE,30,33.0,39.0,60,-99.99,,,-99.99,,2013-04-21 23:00:00,
2013-04-21 19:22:00,54.0,41.0,30.40,NNE,30,33.0,39.0,60,-99.99,,,-99.99,,2013-04-21 23:22:00,
2013-04-21 19:32:00,54.0,41.0,30.40,NNE,30,33.0,39.0,60,-99.99,,,-99.99,,2013-04-21 23:32:00,
2013-04-21 19:42:00,54.0,41.0,30.40,NNE,30,33.0,39.0,60,-99.99,,,-99.99,,2013-04-21 23:42:00,
2013-04-21 19:52:00,54.0,41.0,30.40,NNE,30,33.0,39.0,60,-99.99,,,-99.99,,2013-04-21 23:52:00,
2013-04-21 20:00:00,54.0,42.0,30.40,NNE,30,31.0,38.0,63,-99.99,,,-99.99,,2013-04-22 00:00:00,
2013-04-21 20:21:00,54.0,42.0,30.40,NNE,30,31.0,38.0,63,-99.99,,,-99.99,,2013-04-22 00:21:00,
2013-04-21 20:31:00,54.0,42.0,30.40,NNE,30,31.0,38.0,63,-99.99,,,-99.99,,2013-04-22 00:31:00,
2013-04-21 20:42:00,54.0,42.0,30.40,NNE,30,31.0,38.0,63,-99.99,,,-99.99,,2013-04-22 00:42:00,
2013-04-21 20:51:00,54.0,42.0,30.40,NNE,30,31.0,38.0,63,-99.99,,,-99.99,,2013-04-22 00:51:00,
2013-04-21 21:00:00,53.0,44.0,30.42,NE,40,33.0,38.0,71,-99.99,,,-99.99,,2013-04-22 01:00:00,
2013-04-21 21:21:00,53.0,44.0,30.42,NE,40,33.0,38.0,71,-99.99,,,-99.99,,2013-04-22 01:21:00,
2013-04-21 21:32:00,53.0,44.0,30.42,NE,40,33.0,38.0,71,-99.99,,,-99.99,,2013-04-22 01:32:00,
2013-04-21 21:41:00,53.0,44.0,30.42,NE,40,33.0,38.0,71,-99.99,,,-99.99,,2013-04-22 01:41:00,
2013-04-21 21:51:00,53.0,44.0,30.42,NE,40,33.0,38.0,71,-99.99,,,-99.99,,2013-04-22 01:51:00,
2013-04-21 22:00:00,53.0,45.0,30.44,NNE,30,30.0,37.0,73,-99.99,,,-99.99,,2013-04-22 02:00:00,
2013-04-21 22:21:00,53.0,45.0,30.44,NNE,30,30.0,37.0,73,-99.99,,,-99.99,,2013-04-22 02:21:00,
2013-04-21 22:31:00,53.0,45.0,30.44,NNE,30,30.0,37.0,73,-99.99,,,-99.99,,2013-04-22 02:31:00,
2013-04-21 22:41:00,53.0,45.0,30.44,NNE,30,30.0,37.0,73,-99.99,,,-99.99,,2013-04-22 02:41:00,
2013-04-21 22:51:00,53.0,45.0,30.44,NNE,30,30.0,37.0,73,-99.99,,,-99.99,,2013-04-22 02:51:00,
2013-04-21 23:00:00,53.0,46.0,30.40,NNE,20,25.0,31.0,76,-99.99,,,-99.99,,2013-04-22 03:00:00,
2013-04-21 23:22:00,53.0,46.0,30.40,NNE,20,25.0,31.0,76,-99.99,,,-99.99,,2013-04-22 03:22:00,
2013-04-21 23:33:00,53.0,46.0,30.40,NNE,20,25.0,31.0,76,-99.99,,,-99.99,,2013-04-22 03:33:00,
2013-04-21 23:42:00,53.0,46.0,30.40,NNE,20,25.0,31.0,76,-99.99,,,-99.99,,2013-04-22 03:42:00,
2013-04-21 23:52:00,53.0,46.0,30.40,NNE,20,25.0,31.0,76,-99.99,,,-99.99,,2013-04-22 03:52:00,